Theta_e
321 316 313 311 309 307 313 313 301 300 296 292 290 292 295 305 308 304 302 302 298 300 300 301 301 300 299 294 293 294 295 293 291 297 296 298 303 304 305 305 304 306 307 308 310 311 317 330 340 343 343 344 344 345 345 345 345 345 344 344 343 343 343 342 342 342 342 342 342 342 342 342 342 341 341 342 341 342 340 340 341 341 340 340 341 342 341 340 340 340 340 340 340 340 341 340 338
317 315 314 310 307 314 310 308 297 297 292 289 292 293 297 302 303 300 299 300 300 300 301 300 300 299 299 298 297 298 294 294 296 294 301 301 303 305 304 304 304 305 306 308 308 309 319 328 337 341 341 343 343 343 343 343 343 343 343 344 343 342 342 343 342 342 341 342 341 342 341 341 341 341 340 341 340 341 340 341 341 340 341 340 340 340 341 341 340 340 339 340 340 340 340 340 339
318 314 310 310 307 312 309 307 298 291 289 286 291 294 301 299 298 300 301 301 301 301 300 298 298 296 298 300 296 295 292 297 296 297 299 301 298 301 302 303 305 307 306 307 307 309 319 328 335 338 340 342 343 342 342 341 341 341 341 342 341 342 340 341 341 341 341 341 341 341 342 341 341 341 340 340 340 341 340 340 340 340 340 341 341 341 340 341 341 340 341 340 341 341 340 341 340
311 310 308 306 305 306 302 299 294 292 288 289 289 297 299 297 297 298 301 302 301 301 301 297 295 296 296 291 293 299 293 293 297 296 295 297 297 299 301 302 304 307 306 305 306 309 319 325 332 335 337 339 341 340 340 340 340 340 340 340 340 340 340 339 339 340 340 338 338 338 339 339 339 340 341 340 340 340 340 341 340 340 340 340 340 340 339 339 340 341 341 341 340 340 339 339 340
306 311 307 304 304 303 300 296 291 288 287 286 289 295 300 299 298 298 298 300 300 301 301 297 296 296 295 292 294 292 292 295 297 297 296 298 301 302 302 302 303 304 303 305 306 309 317 326 328 331 335 337 338 339 338 338 338 338 338 337 337 337 337 337 337 337 337 336 335 335 335 335 336 337 338 338 338 339 339 340 340 340 340 340 338 339 340 339 340 340 340 340 340 340 339 338 339
305 301 310 309 305 307 300 290 290 289 290 291 291 293 299 301 298 299 298 299 299 299 299 298 297 292 290 292 293 290 294 292 296 295 297 297 302 302 300 303 301 303 301 302 305 308 315 323 325 328 331 334 335 336 337 337 336 336 336 335 334 334 335 335 334 334 334 333 333 334 332 333 332 333 334 335 335 335 336 337 337 337 338 338 339 340 340 340 340 339 339 339 339 339 339 339 339
300 303 303 305 303 303 293 289 289 288 291 294 292 294 299 301 300 301 299 298 299 299 299 295 295 294 291 293 295 296 298 298 295 296 300 301 303 301 300 300 301 298 299 300 300 305 311 318 321 325 327 329 331 332 333 333 334 333 333 333 333 333 332 332 331 331 331 330 330 330 329 329 329 330 330 331 332 332 332 333 334 334 334 334 334 336 337 337 338 339 339 338 338 338 338 338 338
311 303 301 296 295 293 289 288 288 288 290 294 295 296 296 298 301 297 295 296 293 295 297 296 297 294 290 299 291 296 297 299 300 301 302 303 303 299 300 298 296 296 297 298 299 301 310 314 317 320 322 325 327 328 329 329 329 329 329 329 329 329 329 329 328 328 327 327 327 327 326 326 326 326 326 327 328 329 330 330 331 331 331 331 331 332 332 332 333 335 337 338 338 338 337 336 337
302 303 302 299 290 291 287 287 288 291 291 294 295 299 301 298 299 297 295 296 295 296 295 296 300 296 292 291 291 295 297 300 300 303 304 303 299 298 298 298 297 296 297 297 297 299 302 310 313 315 318 320 322 323 323 324 324 325 326 326 326 326 325 325 325 326 325 324 324 323 323 323 323 322 322 323 324 326 326 327 327 327 327 328 328 329 329 329 328 329 332 335 338 338 338 337 335
300 301 295 294 292 288 288 287 285 289 291 293 294 295 297 298 297 297 295 294 294 295 295 298 299 294 293 288 289 290 293 300 301 302 304 302 301 298 296 297 297 296 296 296 297 297 299 306 309 311 313 316 318 319 320 320 321 321 321 322 322 323 322 322 322 322 323 322 321 321 320 320 320 320 320 319 320 322 323 323 323 324 324 324 324 325 325 326 326 326 327 328 329 331 333 334 334
294 297 297 291 287 285 285 285 287 288 290 293 293 296 296 297 297 295 295 294 296 294 295 296 292 292 292 290 290 297 296 295 296 296 301 302 305 299 296 296 296 296 295 297 297 297 296 298 305 307 308 311 314 316 317 318 318 318 318 318 319 319 319 319 318 318 318 318 318 317 317 317 317 317 317 316 316 317 319 320 321 321 321 321 321 322 322 322 323 323 324 324 325 325 326 326 328
293 292 291 286 285 285 285 285 286 288 290 291 291 293 295 296 296 292 293 294 295 293 292 291 293 295 290 289 288 291 293 294 296 296 297 299 295 297 296 295 297 296 297 296 296 296 297 297 298 303 305 306 309 312 313 315 316 316 315 315 315 315 315 316 316 316 315 315 315 315 315 315 315 314 314 314 313 314 315 316 318 319 319 320 320 319 320 320 320 321 321 321 321 321 322 321 322
292 291 289 287 286 287 287 286 286 288 286 288 290 292 294 293 292 292 291 291 290 294 293 291 298 298 289 288 291 292 291 293 296 296 297 295 297 297 296 295 296 296 296 297 294 295 296 296 297 298 301 303 303 306 309 311 313 313 313 313 313 312 312 312 312 313 313 313 311 311 312 313 312 312 312 311 312 312 311 312 314 316 316 317 318 318 318 318 318 318 319 318 318 318 318 318 318
294 296 291 286 288 287 285 285 285 284 285 289 291 292 292 290 290 291 293 290 287 288 291 290 296 295 288 289 289 288 290 294 297 296 294 294 296 297 297 295 296 295 296 295 294 295 295 296 296 297 297 297 297 299 303 307 309 311 311 311 311 310 309 309 309 309 309 309 309 308 308 309 310 309 308 308 309 309 309 309 310 313 314 313 314 315 315 316 316 316 316 315 316 315 315 315 315
295 295 290 285 284 284 286 284 286 285 284 288 291 289 288 289 290 289 289 289 288 288 292 293 290 292 289 289 287 288 291 295 296 295 295 295 295 297 296 296 296 296 295 296 296 295 295 295 295 296 297 297 297 296 296 299 305 306 308 308 309 308 308 307 306 306 306 306 306 306 305 305 305 306 305 305 306 307 308 306 307 309 312 311 312 312 312 312 313 313 313 313 313 312 311 311 312
297 292 287 284 284 284 286 286 286 285 285 288 289 290 289 288 289 287 288 291 287 290 290 287 291 289 288 288 288 291 293 296 296 297 297 298 295 294 294 295 294 295 295 295 296 296 296 295 295 297 297 297 296 296 296 296 301 303 304 305 305 306 306 305 304 304 303 304 303 303 303 300 301 300 304 299 303 303 304 303 304 306 308 309 309 309 310 310 310 311 310 310 310 310 308 307 307
294 293 285 282 283 284 286 285 286 284 287 288 290 289 286 286 289 288 290 290 286 286 287 287 288 291 288 288 291 292 293 295 297 294 295 294 292 294 294 293 294 294 295 295 295 296 296 295 295 295 295 296 296 296 296 296 298 300 299 302 302 303 303 303 302 301 301 300 300 300 299 297 295 296 297 296 299 297 301 302 302 303 305 306 306 306 306 307 307 308 308 308 307 306 304 303 304
292 286 284 283 282 282 286 286 287 290 287 288 287 288 288 285 288 288 290 287 286 286 285 287 289 289 290 290 292 293 293 293 293 292 291 291 292 291 291 292 292 291 292 293 295 296 297 296 297 296 296 297 296 297 296 297 297 298 295 295 297 297 300 300 297 296 299 295 299 296 295 295 294 295 297 300 296 297 298 300 301 301 302 304 303 303 303 304 304 305 306 305 304 303 301 294 296
287 282 284 282 283 285 287 288 288 288 286 287 287 288 290 288 288 290 286 284 285 284 284 286 285 287 289 290 291 291 292 292 292 292 291 290 290 289 289 291 291 291 291 293 294 295 296 297 298 297 297 297 296 296 296 296 296 295 295 295 296 298 297 298 296 297 297 296 296 295 296 294 294 294 296 298 298 298 297 299 299 299 300 301 301 300 301 301 301 302 303 302 301 300 293 293 294
287 286 283 282 286 286 287 287 286 288 287 285 285 286 286 286 287 288 285 283 285 283 282 283 283 284 288 291 292 292 292 291 291 291 290 290 290 290 290 290 290 291 292 293 295 297 297 297 297 297 299 300 299 299 299 298 298 297 296 296 295 294 294 295 295 295 296 297 297 297 297 297 295 294 298 298 297 294 293 296 297 297 298 298 300 296 298 298 299 298 299 299 296 294 291 292 293
287 285 281 285 286 285 287 288 287 287 287 285 284 285 285 285 286 286 285 286 283 283 287 285 285 286 288 290 290 291 291 290 290 291 291 291 291 292 291 292 291 293 296 296 297 295 297 299 298 297 298 299 298 295 295 296 295 294 295 296 296 295 295 294 294 294 294 295 297 298 298 299 298 297 297 297 296 295 294 293 292 292 292 292 297 291 291 292 292 291 291 293 291 291 291 290 291
286 283 285 286 286 285 287 287 287 286 286 286 284 284 284 286 284 283 284 284 282 284 286 287 288 289 289 288 289 289 289 289 288 288 287 288 288 288 290 291 294 295 296 294 290 291 292 295 295 294 293 293 293 294 294 297 294 293 293 296 295 295 295 293 293 293 293 293 294 295 294 293 292 292 293 293 293 293 293 294 293 293 293 292 293 291 291 291 291 290 290 290 290 290 290 290 291
284 285 286 286 286 285 286 286 285 286 284 284 282 285 283 283 282 283 283 282 283 288 288 289 290 290 290 289 289 289 288 287 287 287 288 287 288 289 289 288 289 288 290 289 290 289 293 291 291 292 292 293 292 293 293 293 292 292 292 296 295 293 293 293 293 293 293 293 293 294 294 292 292 291 291 292 291 292 292 292 291 291 291 291 292 292 291 291 291 290 290 290 290 290 290 290 290
288 282 285 286 287 285 286 285 285 285 285 284 285 285 283 283 281 283 283 283 285 286 287 287 288 289 289 288 289 288 287 287 288 289 290 289 291 292 290 290 289 290 289 289 288 288 290 289 289 289 291 291 289 290 291 290 290 292 294 295 291 297 293 291 292 294 294 292 294 294 295 292 292 291 291 291 291 291 291 291 291 291 290 291 291 291 290 291 291 291 290 290 290 290 290 290 290
286 284 286 286 286 285 286 286 285 285 284 284 284 283 281 283 282 282 281 284 285 286 286 286 286 286 285 286 286 287 288 289 288 290 292 290 291 293 292 290 288 287 287 287 287 288 288 291 288 288 289 289 289 289 289 288 289 289 290 289 290 297 290 290 291 293 292 293 292 294 294 292 292 291 290 291 291 291 291 291 290 290 290 290 290 290 290 290 290 290 290 289 289 289 289 289 290
286 286 286 286 285 285 285 285 284 285 285 285 283 281 282 284 285 281 282 283 285 286 286 285 284 284 284 284 285 284 283 284 286 286 287 288 288 286 287 287 287 285 287 286 286 286 289 288 288 288 289 291 289 289 290 288 288 288 289 288 289 293 289 290 291 289 290 291 291 293 292 292 292 291 290 290 290 290 290 290 290 289 289 289 289 289 290 289 289 289 289 289 289 289 289 289 290
286 286 286 286 285 286 286 284 285 285 285 284 282 280 282 283 283 278 283 284 285 284 283 283 283 283 284 284 284 284 284 283 284 285 287 287 287 285 288 286 286 286 288 286 287 287 292 287 288 289 288 293 289 288 290 288 289 287 291 287 288 289 289 290 288 288 289 289 292 291 290 291 293 291 289 289 289 289 288 288 288 289 289 289 289 289 290 290 289 289 288 288 288 288 288 289 289
286 287 286 285 285 285 285 284 285 285 285 283 283 281 283 283 283 279 282 284 284 283 282 282 282 282 283 284 283 285 284 284 284 284 285 285 286 286 285 285 286 286 286 286 287 290 288 288 289 289 289 292 291 289 291 289 289 288 291 288 288 290 290 288 287 288 290 288 290 290 290 289 293 290 290 289 290 288 287 287 287 287 288 288 289 289 289 289 289 289 289 289 288 288 288 288 288
286 286 284 284 283 285 284 285 285 284 285 284 283 283 281 280 280 283 284 284 284 282 281 281 281 281 281 282 283 283 283 284 284 284 284 284 285 287 285 286 287 286 286 288 287 288 289 288 291 288 291 289 290 289 290 288 288 289 290 288 290 292 289 289 288 288 287 289 290 290 290 290 292 290 289 289 291 287 287 287 287 288 287 287 288 289 289 288 288 288 288 289 288 288 288 287 288
287 285 283 282 278 279 285 285 284 285 285 284 285 277 276 279 282 282 283 283 283 281 280 281 280 280 281 281 282 283 284 283 283 284 284 284 285 285 285 286 288 286 288 287 287 287 292 291 292 290 293 289 292 291 294 288 289 289 293 287 290 289 287 287 289 288 288 289 288 288 289 290 292 289 289 288 288 287 287 287 287 287 287 287 287 287 287 288 287 287 287 287 289 287 286 287 287
282 284 282 278 274 277 283 284 282 285 286 284 286 277 275 278 281 282 283 283 282 281 280 280 280 281 281 282 282 283 284 284 284 284 285 286 286 286 286 286 287 288 288 286 287 287 288 288 295 288 292 288 288 287 289 289 291 288 287 288 288 288 289 287 286 287 287 287 288 287 289 290 291 289 289 289 287 287 286 286 286 287 287 288 287 287 286 286 286 286 287 286 286 287 286 287 287
280 278 276 275 277 279 281 284 283 283 285 284 282 276 276 278 281 283 283 282 281 280 280 280 280 280 280 281 282 282 283 284 284 284 285 285 285 285 285 286 286 286 287 287 287 290 287 287 292 288 287 287 287 289 289 289 288 288 288 295 288 287 287 287 286 286 287 286 287 287 287 289 291 289 288 288 287 286 286 285 286 286 287 287 287 287 287 285 285 286 286 286 285 285 286 285 286
280 278 277 276 276 278 278 285 284 285 284 283 283 277 277 280 281 283 283 282 281 280 279 279 280 280 281 281 281 281 283 284 285 284 285 285 286 285 286 285 286 287 286 286 286 287 286 286 289 289 287 287 288 287 287 288 288 287 288 288 288 288 286 286 286 286 287 286 286 286 286 288 289 289 288 288 287 287 286 286 286 286 287 286 286 286 285 286 285 286 285 286 285 284 285 285 285
276 278 278 278 277 276 276 279 284 283 283 282 281 280 278 280 280 282 283 282 280 280 280 280 280 280 281 281 281 281 281 282 283 283 284 285 285 285 285 295 289 288 286 289 286 286 286 286 287 289 289 289 289 288 288 288 288 288 287 287 290 288 286 287 286 286 287 287 286 287 287 288 290 289 288 288 287 287 287 286 286 286 286 285 285 284 284 285 284 284 284 285 285 284 284 284 284
276 277 276 277 276 277 278 278 281 283 282 281 279 280 279 280 279 281 282 282 280 280 280 280 280 280 281 281 281 280 281 281 282 283 284 284 285 285 286 287 286 287 286 285 285 286 286 286 289 288 291 290 288 288 287 289 288 287 286 287 286 286 287 286 286 286 287 287 287 287 288 289 290 289 288 288 287 287 286 286 286 285 286 285 284 284 284 285 285 284 283 284 285 284 284 284 284
278 278 277 277 276 276 276 278 283 281 281 280 278 279 280 281 279 280 281 281 280 280 280 280 280 280 280 280 280 280 281 282 283 284 284 284 285 285 285 285 285 285 285 285 287 286 285 286 286 287 288 288 287 287 287 286 286 286 286 286 285 286 286 288 288 287 287 287 288 288 288 288 288 289 288 288 287 287 286 286 286 286 285 285 284 283 284 283 283 283 283 284 284 285 285 284 284
280 279 277 276 275 275 277 280 282 282 280 277 278 279 279 280 280 280 281 280 280 280 280 280 280 280 281 280 280 281 281 282 283 284 284 285 285 285 285 284 285 285 286 286 285 286 286 286 286 286 287 287 287 287 286 285 285 285 284 285 285 285 286 287 288 288 287 287 288 288 288 289 288 288 289 288 287 288 288 287 286 285 285 285 284 284 284 284 284 284 285 285 284 283 283 283 282
279 278 276 275 276 275 279 279 280 282 280 276 277 279 280 281 281 280 280 280 280 280 280 280 280 280 281 281 281 281 282 284 284 284 284 285 284 286 285 285 288 285 287 286 286 287 287 287 286 286 287 287 287 287 287 287 287 286 286 286 286 285 286 285 286 287 287 289 289 289 289 288 288 288 289 288 289 288 287 287 286 286 286 285 285 286 286 288 286 284 284 282 283 282 282 283 283
278 278 276 274 275 277 278 278 281 282 280 276 276 278 279 280 280 280 280 280 281 281 282 280 280 280 281 281 281 282 282 282 282 283 284 284 285 286 285 286 286 286 286 286 287 287 287 287 287 287 287 287 288 288 288 287 287 287 287 286 285 286 286 287 286 287 288 288 288 288 288 288 288 288 288 289 288 288 287 286 286 286 285 286 286 285 285 284 284 284 283 282 282 282 283 283 282
277 276 275 274 276 276 274 277 279 282 279 276 277 276 279 280 281 280 280 280 281 281 282 281 281 281 281 282 283 283 281 282 282 283 284 285 285 285 285 285 286 286 286 287 287 287 288 289 288 288 288 288 288 288 292 290 289 288 287 287 287 286 286 288 288 288 287 287 287 288 288 288 287 287 288 288 288 287 287 286 287 286 286 286 285 284 284 284 284 284 283 283 283 281 281 281 283
276 277 275 275 276 277 276 276 278 279 279 279 277 276 277 278 277 279 280 282 282 281 282 282 282 282 282 283 283 283 283 282 282 282 283 284 284 285 286 287 286 286 286 287 287 287 288 288 288 288 288 288 288 290 289 288 289 288 287 287 287 286 286 286 285 286 286 288 288 287 288 288 288 288 288 287 288 288 288 287 287 287 286 286 286 285 284 284 284 284 284 283 283 282 281 282 282
275 277 278 278 277 276 276 277 277 274 277 278 278 271 273 276 277 277 278 280 279 280 281 281 282 283 282 282 282 282 284 283 283 284 284 285 285 286 286 286 286 287 287 288 288 288 287 288 288 288 288 288 288 288 289 289 287 287 286 285 285 285 284 285 285 286 287 287 287 288 288 288 288 288 288 288 287 289 287 287 287 286 286 286 286 286 285 285 284 284 284 284 283 283 282 281 281
274 277 277 278 278 277 276 276 275 272 274 278 278 270 268 275 275 277 276 277 278 279 280 281 282 282 282 282 281 282 283 284 284 284 284 284 285 285 285 285 285 286 287 287 287 287 287 287 287 287 287 288 289 289 289 290 287 286 286 285 285 285 284 285 286 287 287 288 288 287 288 288 288 288 288 288 288 288 288 287 287 287 286 286 287 286 285 285 285 285 286 284 284 284 283 281 281
275 278 277 279 277 276 276 277 276 275 276 278 277 275 269 271 274 276 276 276 277 278 279 280 281 282 282 282 282 282 282 283 284 284 285 285 285 285 285 285 285 285 286 286 286 287 287 288 287 288 288 290 289 289 288 289 287 286 286 285 287 286 285 286 287 287 288 288 288 288 288 288 289 289 288 288 288 288 288 287 287 287 286 286 287 286 285 285 285 285 286 285 285 284 283 282 281
278 278 279 278 277 277 277 277 276 276 273 271 275 275 270 269 274 275 275 276 275 276 277 279 280 281 281 282 282 282 283 283 284 285 285 286 286 286 286 286 286 286 286 286 287 287 287 287 288 287 288 288 288 288 290 288 289 288 286 286 285 287 287 287 288 288 287 287 286 287 287 287 288 288 288 288 287 287 289 288 287 287 286 286 288 287 286 286 285 284 284 284 283 284 283 284 282
278 279 279 278 278 278 277 274 275 275 268 267 273 274 267 269 274 273 274 273 274 275 277 278 279 280 280 281 281 282 282 283 284 284 285 285 285 285 285 285 286 287 287 288 287 287 287 287 287 288 287 288 288 287 287 287 287 288 286 285 285 285 286 286 286 286 286 287 286 286 287 287 287 287 287 287 287 287 287 287 287 286 286 286 288 286 286 285 285 285 285 284 284 283 284 283 283
281 279 277 277 277 277 277 276 273 267 263 270 274 274 274 267 272 272 273 276 275 276 275 277 279 280 280 281 281 281 282 282 282 283 284 284 284 284 284 285 286 286 287 287 287 287 287 287 287 286 287 287 287 287 287 287 287 287 286 286 286 285 286 286 286 286 286 286 286 286 287 287 287 287 287 288 288 288 287 288 288 287 287 288 288 287 286 286 286 286 286 285 284 283 283 283 283
279 277 276 275 276 273 271 267 267 262 261 269 273 274 274 264 269 274 273 275 275 277 278 277 278 279 280 281 282 282 282 282 281 282 282 282 283 284 284 285 285 286 286 286 286 287 287 286 286 286 286 287 287 287 287 287 287 287 286 286 286 286 286 286 286 285 286 286 286 286 287 287 286 287 288 288 288 289 289 288 289 288 287 287 286 286 285 285 286 286 285 285 284 284 283 283 282
279 278 276 270 264 264 269 262 264 262 265 272 272 274 269 269 272 273 274 274 277 277 278 278 279 279 280 281 282 282 282 282 282 281 282 282 283 283 284 284 285 285 285 285 286 285 285 286 286 285 286 286 287 287 286 286 286 286 287 287 286 287 287 287 286 286 286 286 286 286 286 286 286 286 287 287 288 288 289 288 288 288 287 287 288 287 287 286 286 286 285 284 284 283 283 282 282
276 275 269 264 260 256 259 255 259 259 269 272 272 273 270 272 274 275 275 278 276 277 278 278 279 279 280 280 281 281 282 281 281 282 282 282 283 283 283 283 283 284 284 285 285 285 285 285 285 285 285 286 286 286 286 286 286 286 286 286 287 287 286 286 286 286 286 287 287 286 286 286 286 286 286 286 287 287 287 288 288 287 287 287 287 287 286 286 285 284 284 283 282 283 283 282 282
275 275 274 269 263 264 261 260 262 262 267 271 272 268 264 268 273 276 276 276 277 277 278 278 278 279 278 279 279 279 280 280 280 281 282 282 283 282 283 283 283 283 284 284 284 285 284 284 285 284 285 285 285 285 286 286 286 286 286 286 286 286 286 287 287 287 286 286 286 286 286 286 285 285 285 286 286 285 285 285 285 284 284 284 284 283 284 283 283 283 282 282 282 282 282 282 282
274 276 274 270 268 267 265 262 263 259 261 265 263 268 273 273 277 278 276 277 278 277 277 278 278 278 278 279 279 280 280 281 281 281 282 282 282 282 282 283 283 283 284 284 284 284 284 284 284 284 284 285 285 286 285 285 286 286 286 285 286 287 287 287 286 286 286 286 285 285 285 285 285 285 285 285 284 284 283 282 282 281 282 282 282 282 282 282 282 281 281 281 281 283 282 281 282
276 272 267 272 276 271 263 262 263 261 259 261 263 270 273 274 276 276 276 277 277 275 275 275 277 277 277 278 279 279 280 280 280 281 281 282 282 282 283 282 283 283 283 284 284 284 284 284 284 284 284 284 285 285 285 285 285 285 285 285 285 285 285 285 285 285 285 285 285 284 284 284 283 283 283 283 282 282 281 281 280 280 280 281 281 281 281 281 281 281 280 280 280 281 281 281 281
275 269 274 276 272 268 267 263 258 253 258 261 266 268 270 271 266 276 276 275 275 274 275 275 276 277 277 279 279 279 280 280 280 281 281 281 281 282 283 283 283 283 283 283 284 284 284 284 284 283 284 283 284 284 284 284 284 284 284 285 285 285 285 284 284 284 284 283 283 282 282 281 281 281 281 281 281 280 280 281 280 280 280 280 280 280 280 280 280 280 280 280 280 280 280 280 280
277 277 279 275 262 266 264 260 259 259 256 257 264 267 268 271 273 274 274 274 274 275 275 275 277 278 278 278 279 279 279 280 281 281 281 282 282 282 282 283 283 283 284 283 284 284 284 284 284 283 283 283 283 284 284 284 284 284 285 285 284 284 284 284 283 283 282 281 280 280 279 279 279 280 280 279 279 279 279 279 279 279 279 279 279 279 279 279 279 278 279 279 279 279 278 278 278
273 277 276 276 269 265 263 264 261 261 259 260 260 262 267 273 272 274 274 274 274 275 275 276 277 278 278 278 279 279 280 280 280 281 281 282 282 282 282 282 282 283 283 283 283 283 283 284 283 283 284 283 283 284 284 284 284 284 284 284 283 283 283 282 281 280 279 279 278 278 278 278 278 279 279 279 278 278 278 278 278 278 278 278 278 278 278 278 278 278 278 278 278 278 277 277 277
273 272 269 269 268 273 271 266 265 263 256 255 256 261 264 272 274 275 274 274 274 276 277 277 277 278 278 278 279 280 280 280 280 281 281 282 282 282 282 282 282 282 282 283 283 283 283 283 283 283 282 283 283 283 284 284 284 283 283 282 281 281 280 280 279 278 278 277 277 278 277 277 278 277 278 277 277 277 277 277 277 277 277 277 277 277 277 277 277 277 277 277 277 277 276 276 277
272 273 272 272 266 263 260 262 266 261 262 260 258 263 267 274 276 276 275 275 276 277 278 277 278 278 278 279 280 280 280 280 280 281 281 281 281 281 282 282 282 282 282 282 283 282 282 282 282 282 282 282 283 283 283 283 282 282 281 280 279 278 278 277 277 277 277 276 276 276 276 277 276 276 277 276 276 276 276 276 276 276 276 276 276 276 276 276 276 275 275 276 276 276 275 275 275
Wind_Speed
9 7 7 5 2 2 1 1 1 2 4 1 1 4 1 4 3 2 3 7 3 3 3 9 15 11 8 6 16 11 9 7 3 1 4 2 7 6 10 15 16 16 14 15 15 15 17 21 30 19 18 18 19 21 20 19 19 18 17 17 17 16 16 15 15 14 14 13 15 16 14 14 15 13 13 12 10 12 9 8 10 10 8 6 6 5 5 4 3 3 3 3 2 2 2 2 1
6 7 7 4 2 2 1 2 3 1 4 4 3 1 3 3 3 4 2 4 4 7 3 8 12 17 17 16 15 9 13 10 4 2 1 4 10 2 11 14 14 16 16 13 13 12 14 18 29 28 21 23 23 22 22 23 22 21 19 20 20 18 18 18 19 18 18 18 19 19 19 20 19 18 17 16 15 13 13 12 11 8 7 8 7 6 5 4 3 3 4 4 4 3 1 2 2
6 6 6 2 1 1 0 2 0 1 5 2 1 3 2 7 7 5 6 9 12 12 8 9 11 10 7 3 11 7 4 6 6 6 1 8 9 9 15 13 12 12 13 12 11 12 11 19 28 29 29 25 28 27 26 25 23 23 25 24 24 23 22 22 22 22 21 23 24 23 23 22 22 20 20 19 18 17 16 16 16 15 13 13 12 10 8 5 4 3 4 4 4 3 2 3 4
4 2 1 2 1 2 2 2 3 6 5 5 3 3 2 6 6 7 6 8 10 9 3 4 8 7 3 13 6 5 7 3 8 6 3 6 5 10 12 12 12 8 10 11 11 11 12 20 28 27 27 28 29 28 27 27 26 26 26 26 26 25 26 25 25 25 24 24 24 24 24 24 24 23 22 22 22 20 21 20 18 18 19 17 13 10 8 9 5 4 4 4 2 1 1 2 3
4 1 2 1 3 1 2 2 3 3 4 2 5 2 3 4 9 8 7 6 6 2 2 4 6 2 8 9 6 3 4 6 6 5 3 5 6 7 10 12 10 8 10 11 11 10 12 27 26 27 27 28 29 28 27 26 25 25 25 25 25 25 24 24 24 23 24 24 25 24 24 23 23 23 23 23 23 23 23 23 23 22 21 20 20 17 16 10 11 7 4 4 2 2 5 4 2
2 1 0 0 0 1 4 4 6 7 3 1 2 3 3 5 9 10 9 11 9 9 5 6 6 6 6 6 4 3 5 3 4 3 3 4 7 9 11 10 8 7 9 9 10 9 12 23 26 26 27 27 27 26 26 26 26 25 25 25 25 25 24 24 23 23 23 24 25 23 23 23 23 23 24 24 24 22 22 23 23 24 23 23 23 24 23 22 16 10 8 5 3 2 3 3 3
1 3 2 2 2 5 3 7 7 4 6 4 2 2 3 8 10 7 5 4 6 9 9 8 12 10 9 3 4 3 1 2 2 3 3 6 7 10 11 10 8 9 10 9 10 9 15 23 25 26 27 28 27 27 27 27 26 25 25 24 23 23 23 23 23 24 24 23 22 23 23 22 22 22 22 22 22 22 21 21 23 23 24 24 24 24 24 23 22 20 14 9 5 4 2 4 4
0 1 1 2 1 5 5 5 6 1 3 5 3 5 7 4 2 3 5 5 6 4 4 4 3 10 3 4 3 3 4 2 5 6 5 5 6 10 10 11 9 10 11 9 9 10 14 24 25 26 27 27 26 27 26 26 26 26 25 24 24 23 22 23 22 22 23 23 23 23 23 23 23 22 21 21 22 22 22 21 20 21 22 24 25 25 24 24 23 21 21 16 11 6 4 6 6
2 2 0 5 6 3 4 5 6 3 3 4 6 6 8 7 5 5 11 5 5 7 6 3 3 6 3 6 5 2 3 5 4 4 3 2 8 10 7 10 10 9 11 11 11 10 10 21 25 26 26 27 27 27 26 26 25 25 25 25 24 24 24 23 22 23 23 23 23 23 23 23 22 22 22 22 22 22 22 22 22 21 21 21 22 23 23 23 23 22 22 24 20 19 14 3 3
1 2 0 2 4 7 7 2 5 3 4 3 6 8 6 5 8 10 10 12 9 10 11 7 3 12 10 9 6 3 2 6 5 3 4 2 2 4 9 9 10 11 11 12 10 10 10 18 25 25 26 26 27 27 26 26 26 25 25 25 24 25 24 24 23 23 24 24 23 23 23 22 22 23 24 23 23 22 23 22 22 21 21 21 21 21 22 22 22 23 23 23 22 21 21 22 20
1 3 2 4 5 6 3 5 5 2 3 2 4 7 6 3 8 10 7 8 4 4 1 5 11 11 6 5 3 2 3 8 3 5 4 1 2 4 6 8 9 10 11 11 10 11 11 14 23 26 25 26 27 26 26 26 26 26 26 25 25 25 24 23 23 23 24 23 23 23 23 22 23 24 24 23 23 23 23 23 22 21 21 21 22 22 22 22 22 22 22 22 22 22 21 21 20
2 1 3 5 5 5 2 6 3 2 2 4 3 6 4 4 2 5 3 7 3 7 7 5 6 10 9 5 3 3 7 8 6 7 5 3 4 6 6 7 9 10 10 10 11 11 12 11 13 19 25 25 25 27 26 26 26 26 25 25 25 25 24 23 22 23 24 23 23 23 23 22 23 23 23 23 22 22 24 24 22 22 22 22 22 22 22 22 22 22 22 22 22 22 22 21 20
5 1 7 7 1 5 5 7 1 2 2 3 1 3 4 6 7 4 4 6 5 6 7 11 11 3 4 3 4 4 9 6 4 4 3 5 5 6 6 9 9 10 10 11 12 12 12 11 11 11 16 23 22 24 25 26 26 25 25 25 24 24 24 23 23 24 24 23 23 23 22 22 23 23 22 22 22 23 23 23 23 22 22 22 22 22 22 22 22 22 22 22 22 21 21 21 21
3 2 6 5 1 4 4 2 1 3 2 2 1 1 4 3 3 5 0 8 7 5 1 8 3 7 8 6 3 3 4 6 3 5 7 8 7 7 8 9 9 11 10 10 11 11 12 12 11 11 12 13 13 15 20 24 24 25 25 25 24 24 24 23 23 23 24 23 23 23 22 22 23 23 22 23 23 23 23 22 23 22 22 22 23 23 22 22 22 22 21 22 22 22 21 21 21
2 2 6 5 1 2 1 5 6 5 3 3 1 2 3 6 1 5 8 6 4 3 6 3 2 3 4 6 4 2 4 8 6 8 8 10 11 8 9 9 9 10 11 12 12 12 12 11 11 9 11 11 12 11 11 15 24 23 24 24 23 23 23 24 24 23 22 22 22 21 21 22 22 23 22 22 22 22 22 22 23 22 22 22 23 23 23 23 22 22 22 21 21 21 21 20 21
2 7 5 5 2 4 0 4 1 5 2 3 3 7 10 8 7 3 4 1 3 4 7 5 8 2 4 5 3 3 4 5 5 8 7 6 6 7 7 7 7 8 9 11 11 12 11 12 11 10 10 11 10 10 11 11 17 22 22 22 22 22 22 21 22 22 22 22 21 20 19 15 15 15 22 17 21 21 22 20 22 22 22 22 23 23 23 23 23 22 22 22 21 21 20 19 20
2 6 8 4 4 3 1 1 2 2 2 3 3 3 4 4 4 7 6 8 8 6 9 6 4 4 8 5 2 4 4 4 7 9 7 6 5 5 5 5 6 6 7 9 9 8 10 11 12 9 11 11 11 9 8 9 11 16 15 19 20 21 20 19 20 19 18 17 17 17 16 11 10 9 11 11 17 14 20 21 21 22 23 22 22 22 23 23 23 23 22 22 21 21 20 19 19
7 6 5 7 1 4 1 2 3 2 5 1 2 2 11 5 2 2 2 12 9 7 10 5 10 11 6 4 5 5 5 8 7 9 6 5 4 4 5 5 6 6 5 6 7 6 6 7 9 9 9 11 10 8 8 8 8 10 10 9 10 12 14 14 12 12 13 11 16 12 11 11 9 9 9 10 8 12 12 20 19 20 20 21 21 21 20 21 23 23 23 22 22 21 20 10 10
7 4 5 7 1 2 1 1 4 2 4 3 2 2 2 5 3 0 6 4 3 8 7 5 10 7 7 7 6 7 7 8 10 8 7 6 5 7 5 3 5 4 5 4 4 5 4 4 5 6 6 7 9 9 7 7 10 9 9 8 7 10 9 10 9 9 6 9 8 9 8 7 9 10 10 11 10 13 12 16 18 18 19 19 20 20 19 20 20 22 22 21 21 21 11 9 8
7 6 9 6 2 3 8 7 5 7 8 7 6 4 7 1 1 2 5 5 6 6 4 5 6 7 6 6 7 8 9 8 8 6 5 6 5 5 5 5 4 5 5 3 4 4 3 4 4 4 4 4 4 3 2 3 4 4 4 5 6 6 7 6 6 6 6 6 6 4 4 4 4 4 9 12 11 9 9 12 15 15 15 15 18 11 14 16 18 17 18 20 14 9 9 10 9
4 8 3 1 1 4 6 8 7 6 6 5 5 3 6 6 4 2 6 8 5 2 1 1 7 7 6 6 7 6 7 6 5 4 4 4 3 2 1 2 3 4 3 5 4 4 5 4 4 5 4 3 3 4 5 5 5 5 5 5 5 4 4 5 5 6 6 7 7 5 6 5 5 5 5 5 4 5 5 6 7 8 7 8 11 8 8 8 8 7 8 9 8 9 9 9 9
6 4 1 2 2 10 2 5 6 5 5 8 4 7 3 1 6 7 2 6 2 0 4 7 7 7 7 7 7 6 6 6 6 6 6 6 6 4 4 2 3 3 4 3 4 5 4 4 4 4 4 4 4 4 4 4 5 5 5 5 5 5 4 5 5 5 6 6 5 6 6 6 6 6 7 7 8 8 8 7 7 6 6 8 8 8 7 8 7 7 8 8 8 8 8 8 8
11 6 6 8 4 6 2 3 3 5 4 5 2 2 2 4 4 4 8 5 2 5 6 6 6 8 8 8 8 7 6 6 5 6 4 4 3 2 1 1 2 4 4 4 4 4 5 5 5 5 6 5 6 6 5 5 5 5 5 5 6 6 5 5 5 4 5 5 5 6 6 7 8 8 8 8 9 8 8 8 8 7 7 8 8 8 8 7 7 7 7 7 7 7 7 7 7
14 4 3 8 9 8 4 5 7 6 9 4 3 4 6 1 8 3 7 3 5 4 4 4 5 6 6 6 4 6 6 5 4 4 3 3 2 1 0 1 2 2 2 3 4 3 3 4 4 5 5 6 5 5 6 6 5 5 5 4 5 6 6 5 5 4 3 4 4 5 6 6 7 7 7 8 8 7 7 7 6 6 6 6 6 7 8 8 8 7 8 8 8 7 8 8 7
9 7 3 2 5 4 6 8 9 9 7 4 7 7 1 4 4 3 3 4 5 6 6 6 7 6 5 5 4 4 4 3 3 2 1 2 2 1 1 1 1 2 3 3 3 3 3 3 4 6 5 5 5 5 6 5 6 5 5 5 5 5 6 6 6 5 4 4 4 5 5 6 6 6 7 7 6 7 7 7 7 7 7 6 6 7 7 8 8 8 8 8 8 9 8 9 9
3 5 3 3 3 3 5 7 6 7 3 6 12 7 5 9 8 5 4 3 4 5 6 5 6 6 5 5 5 5 4 4 4 3 4 2 2 3 1 2 2 3 2 3 4 4 4 5 5 5 5 5 5 5 5 5 5 6 6 5 5 5 5 5 5 6 5 3 4 3 4 4 5 5 6 6 6 7 7 7 7 7 7 6 6 7 7 7 7 7 8 8 8 8 8 8 8
3 7 5 8 4 4 2 5 1 1 3 1 7 3 4 2 4 0 1 3 3 5 5 4 6 5 4 4 4 4 5 5 5 3 1 1 1 3 0 2 2 2 3 4 4 5 4 5 5 4 4 4 5 5 5 5 5 5 5 4 5 5 5 5 5 5 6 6 4 4 4 4 4 5 5 6 5 6 6 6 7 6 7 7 6 6 6 6 6 6 7 7 7 8 7 7 7
6 9 7 6 5 5 3 4 1 1 2 3 11 4 1 3 1 3 5 4 5 5 4 3 3 3 3 3 3 2 3 2 2 3 3 1 1 0 0 2 1 3 4 4 3 3 5 5 4 5 4 4 4 4 4 5 5 5 5 6 6 6 4 5 6 5 5 5 4 4 4 4 4 5 4 5 5 6 6 6 5 5 6 6 6 6 7 7 6 6 6 5 6 6 7 7 6
6 5 8 1 4 5 6 3 2 1 0 3 5 4 1 3 0 2 9 6 6 6 5 4 4 4 4 3 3 2 3 2 2 2 3 2 2 2 2 2 1 2 1 1 2 4 4 4 4 4 4 4 4 5 4 4 4 4 5 5 5 5 6 6 7 6 6 5 3 3 3 3 3 3 4 4 4 5 5 6 6 6 6 6 6 7 7 7 7 7 8 7 8 8 8 8 6
3 3 7 1 3 4 6 1 2 3 1 4 3 1 4 2 1 5 5 8 6 6 5 4 4 4 4 4 4 3 2 4 4 4 3 3 4 3 4 2 1 2 0 1 2 2 1 2 2 3 4 5 4 5 4 5 4 4 4 4 4 5 5 5 5 6 6 6 4 4 3 3 2 3 2 3 3 5 5 5 5 6 6 5 6 6 7 7 7 7 8 7 8 8 9 9 9
3 0 5 2 3 1 3 2 3 3 1 3 1 0 6 3 3 5 4 6 8 6 5 4 4 3 3 3 4 4 2 3 4 4 3 3 3 2 2 0 0 1 1 1 1 2 3 3 2 3 3 5 4 5 4 4 4 4 5 5 4 4 4 4 5 5 5 6 6 6 4 4 4 4 3 3 4 4 6 6 6 6 6 5 6 5 5 6 6 7 7 8 8 7 7 8 8
4 2 4 3 6 1 3 3 4 2 2 3 3 1 4 2 7 7 5 6 6 6 4 4 4 4 3 3 3 3 3 1 3 3 3 3 3 2 3 2 1 1 0 1 2 2 4 4 4 3 4 4 5 4 4 4 4 4 3 4 4 4 5 6 6 6 5 6 5 5 5 5 4 4 4 4 4 5 5 6 6 6 6 5 6 6 5 6 6 6 7 6 9 9 9 9 8
5 5 0 2 3 1 2 0 1 1 2 2 1 3 3 3 4 7 5 6 6 6 5 4 4 4 4 4 4 4 2 1 1 1 1 2 1 2 2 1 0 1 1 1 2 2 4 4 4 4 5 5 5 6 5 5 4 4 4 4 4 3 4 5 6 6 6 6 6 6 6 5 5 5 5 4 4 5 6 6 7 6 5 5 6 6 5 5 5 6 7 6 5 8 9 10 10
6 4 3 1 3 2 2 5 4 6 4 3 3 0 3 2 2 7 5 6 6 5 5 4 4 4 4 4 4 4 4 3 3 2 3 2 2 1 2 1 1 1 2 3 4 4 5 5 5 5 6 5 5 6 5 5 6 5 5 5 4 5 5 5 6 5 6 6 6 7 7 7 6 6 6 5 5 6 5 6 7 7 6 6 6 6 7 6 5 5 8 7 6 6 8 9 10
3 6 5 4 3 1 3 4 5 9 4 4 2 0 5 5 2 6 7 4 5 5 4 4 4 4 4 4 4 4 4 4 7 6 6 5 4 4 4 3 2 2 3 4 4 5 5 5 5 5 5 6 6 6 5 6 6 5 5 5 5 6 6 5 5 5 6 6 6 7 7 7 8 8 8 7 7 7 7 6 7 7 6 6 6 6 6 7 6 6 6 9 7 6 6 8 9
2 2 2 0 4 4 5 3 2 7 9 6 3 5 9 9 1 4 4 4 5 3 1 3 3 4 4 4 4 4 5 7 6 5 6 5 6 6 4 4 4 4 4 4 4 5 6 6 5 6 6 7 6 6 6 6 6 7 7 6 6 7 6 6 6 6 5 6 6 6 7 7 7 8 8 8 7 8 8 8 8 7 6 6 6 7 7 7 8 8 8 8 9 9 6 6 7
1 1 2 2 4 4 2 1 3 7 5 1 3 7 6 8 6 6 4 4 3 3 2 4 4 4 5 5 5 7 7 8 5 6 5 6 6 5 4 4 4 4 5 5 5 6 6 8 6 8 8 6 6 7 6 6 6 6 4 5 7 7 7 5 6 6 6 6 7 7 7 7 7 8 8 7 8 8 8 8 7 8 7 6 6 8 8 8 7 7 7 6 8 10 8 6 5
2 3 4 4 5 7 6 3 2 6 4 3 4 6 9 12 11 2 5 5 4 4 3 3 4 5 5 6 6 7 6 1 0 2 4 4 4 4 4 4 4 5 6 5 6 8 7 7 6 9 8 7 7 7 7 6 5 6 7 7 7 6 7 7 7 7 7 6 7 7 7 7 8 8 8 7 8 8 9 8 7 9 9 8 8 8 7 8 9 8 6 8 5 7 8 5 6
6 5 1 3 5 6 6 1 6 5 2 3 4 6 10 12 11 7 4 3 0 3 5 2 4 5 5 4 5 5 2 3 3 4 4 4 4 5 4 4 4 5 6 6 7 6 7 7 7 7 8 8 8 8 7 8 7 6 5 7 6 6 6 7 6 7 6 8 9 9 8 8 9 8 9 9 8 8 8 8 8 9 8 8 8 9 9 9 8 9 9 8 10 6 7 5 6
6 6 7 3 3 6 4 3 5 11 1 2 3 3 8 7 7 9 5 3 1 3 4 4 2 4 5 6 6 6 4 4 5 6 6 5 4 4 4 4 7 5 5 6 7 7 7 7 7 7 8 8 8 8 8 8 8 8 6 7 7 5 7 6 6 6 7 8 10 9 8 8 8 8 9 9 9 9 9 10 10 9 9 7 8 9 10 10 10 9 9 9 8 11 8 7 4
3 4 4 2 3 2 2 6 7 7 2 2 2 4 7 12 11 9 8 7 9 7 7 9 7 4 4 5 5 4 7 6 5 4 4 4 5 6 7 7 5 5 6 6 7 6 5 6 7 7 7 7 7 8 8 7 7 7 7 6 4 6 4 5 5 7 7 7 7 7 9 8 8 8 8 9 9 10 10 10 10 10 10 9 8 9 10 10 10 9 10 10 10 10 13 10 7
6 0 2 1 1 3 4 7 6 5 1 3 4 4 5 6 6 7 5 8 7 4 8 8 8 9 8 8 5 2 1 1 4 5 6 6 6 6 6 7 6 6 6 7 6 7 6 7 7 6 6 6 7 7 8 6 6 6 7 7 8 7 8 8 9 10 10 10 11 9 9 9 9 9 9 9 10 10 10 11 10 10 10 9 9 10 10 10 10 11 11 10 11 10 12 13 11
2 3 3 2 0 1 3 6 2 3 4 4 3 4 0 2 6 6 5 5 7 5 8 8 9 10 9 8 6 2 1 1 1 3 4 4 5 4 6 5 5 5 6 6 5 5 6 6 5 5 5 6 6 6 6 5 5 5 6 6 7 8 9 8 8 9 8 9 8 9 10 9 9 10 10 9 10 10 10 10 10 10 10 10 9 9 10 11 10 10 10 9 11 11 10 13 15
2 1 4 0 4 4 3 0 1 1 1 3 6 4 4 0 4 3 7 4 7 8 9 9 8 9 10 8 7 5 3 1 1 2 3 3 3 3 4 3 3 5 5 4 5 5 5 7 6 7 6 6 6 5 5 5 4 5 6 6 6 7 8 10 10 9 8 8 9 10 9 9 9 9 10 10 10 11 11 11 11 11 11 11 10 10 11 10 9 9 10 11 11 10 11 12 15
4 1 1 6 5 3 3 1 1 0 2 2 8 6 4 0 1 4 4 6 6 5 5 5 7 7 8 8 8 6 4 3 2 4 4 5 5 4 4 5 5 5 6 5 6 6 6 6 7 6 8 7 7 6 6 6 5 6 6 6 7 7 8 8 8 7 8 8 9 9 9 10 9 9 9 10 10 10 11 11 11 11 11 11 10 10 10 11 12 12 11 10 10 11 10 11 12
5 3 2 1 2 2 4 2 2 1 3 2 4 4 2 2 1 5 3 3 3 3 4 5 5 5 5 5 5 4 4 4 3 3 3 4 4 5 4 5 7 7 7 6 6 6 7 6 7 7 9 7 7 7 6 7 7 6 6 7 8 9 8 9 7 9 9 8 9 10 9 9 8 8 8 8 9 9 10 11 11 11 12 12 11 11 12 11 11 11 11 11 12 13 11 11 13
8 1 3 4 5 3 2 4 1 2 4 1 1 2 2 2 1 4 0 1 1 2 3 3 5 6 5 4 3 3 4 4 4 5 5 5 5 4 4 6 7 7 7 7 7 7 7 7 7 7 9 8 8 8 6 8 7 6 7 8 8 10 11 10 10 9 9 9 10 11 10 10 9 9 9 9 10 10 10 10 10 11 11 11 11 11 11 11 10 10 10 11 11 12 11 12 14
6 4 2 2 1 5 2 4 3 3 2 1 1 2 1 2 2 3 3 2 2 2 1 3 4 5 4 4 4 4 4 4 4 4 5 5 7 7 7 8 8 8 8 8 7 7 7 7 7 7 9 9 8 8 7 8 7 8 7 8 9 10 10 9 10 11 11 11 11 12 10 8 9 9 9 10 10 10 10 11 12 12 11 10 10 9 9 9 9 9 10 10 11 11 11 12 12
12 10 9 6 3 5 1 8 3 1 1 0 1 3 2 1 3 3 2 3 2 4 4 2 3 4 4 4 5 4 4 4 4 4 4 5 5 7 7 8 8 8 8 8 9 7 7 7 7 7 10 10 9 8 8 8 8 8 9 9 9 9 10 10 11 11 11 11 11 12 11 10 10 10 10 11 10 11 10 10 9 9 9 9 9 9 9 10 10 10 11 12 12 12 11 12 12
9 7 2 5 4 3 0 3 2 3 6 3 1 3 1 1 3 4 3 1 5 4 5 5 3 4 4 5 5 5 6 4 4 4 5 5 6 6 6 6 7 7 8 9 9 8 7 7 8 7 10 10 9 8 8 8 9 9 8 8 9 9 9 10 9 10 11 10 10 11 11 11 12 12 12 11 10 10 9 10 11 11 12 12 12 13 13 13 13 12 13 13 13 12 12 14 14
3 2 2 3 5 1 2 0 1 2 6 8 5 0 2 1 3 4 6 2 2 3 4 4 4 5 5 6 5 4 4 5 5 5 5 6 7 6 6 6 7 7 8 8 7 8 7 8 8 9 10 11 9 9 8 9 9 9 8 9 9 8 9 9 9 9 10 11 10 11 11 11 11 11 11 11 10 10 11 12 12 13 13 14 14 14 13 13 12 12 12 13 13 12 13 13 13
2 2 4 6 2 2 0 2 1 2 3 6 3 1 1 2 1 1 0 1 1 2 3 3 5 5 5 5 5 5 5 6 6 5 6 7 6 6 6 6 7 7 8 8 8 8 7 8 7 8 9 9 9 8 9 8 9 8 8 9 9 8 8 8 8 9 10 10 12 12 12 11 11 11 11 12 12 12 12 13 13 14 14 14 13 13 13 12 12 13 12 12 13 9 11 13 13
4 4 3 3 3 3 1 2 1 1 3 3 1 6 2 3 1 1 1 0 3 3 3 3 5 5 5 5 5 5 6 6 6 6 6 7 7 7 6 6 6 7 7 8 9 9 8 9 8 9 9 8 9 9 8 8 8 7 8 7 7 8 9 10 11 12 12 11 11 11 11 13 13 12 12 12 12 12 12 13 14 15 14 13 13 13 13 12 12 12 11 11 12 10 10 10 10
1 4 2 1 2 4 2 0 4 4 1 3 3 3 4 3 2 0 1 3 6 4 5 5 5 5 5 5 5 6 7 7 7 7 7 6 6 7 7 7 6 7 7 8 9 8 7 7 7 7 8 9 9 8 8 7 8 7 7 8 8 9 10 11 11 12 12 12 12 12 12 13 13 13 12 11 13 14 13 14 13 13 13 13 13 13 13 13 12 11 11 11 11 10 11 10 11
6 1 1 1 2 4 4 2 4 4 3 4 6 3 5 4 3 1 5 4 3 5 4 3 4 6 6 6 7 7 7 7 7 7 7 8 7 8 8 8 8 7 7 7 8 8 7 7 7 6 7 7 7 6 6 6 6 6 7 9 10 10 10 10 11 11 12 12 14 13 13 13 13 12 12 12 13 13 13 12 13 13 13 14 13 13 13 12 11 11 11 11 11 11 10 11 11
1 2 4 1 3 2 2 0 2 4 4 6 5 4 1 3 2 7 5 4 4 4 3 3 5 6 6 6 6 7 7 7 7 7 8 8 8 8 8 8 8 8 8 8 8 7 8 7 7 6 6 6 7 8 7 9 9 9 10 10 10 10 11 11 11 12 12 13 12 12 12 12 12 12 12 13 12 13 13 14 13 13 13 13 13 12 11 12 11 10 10 10 10 10 11 12 11
5 7 4 4 1 2 2 0 1 2 2 2 1 6 5 6 4 4 5 4 4 2 1 3 5 6 7 7 7 7 8 8 8 8 8 9 9 8 8 8 7 7 6 6 6 6 6 6 6 6 7 8 7 8 9 9 9 9 10 11 12 12 13 12 13 13 12 12 12 12 11 12 12 12 12 12 12 12 13 12 13 13 12 12 12 12 10 10 10 12 10 11 11 11 11 10 11
1 1 2 4 1 3 2 4 2 2 1 2 0 8 7 9 2 4 3 6 2 2 0 4 6 7 8 8 8 8 8 8 8 8 7 8 8 7 7 7 6 6 7 7 7 6 6 6 5 6 6 6 8 10 9 9 9 9 10 12 13 12 12 12 13 12 12 12 12 11 12 13 12 12 10 12 14 12 12 14 13 14 13 14 13 13 14 11 13 12 13 10 12 13 12 13 13
Wind_Direction
319 317 309 306 297 242 46 12 199 310 63 351 355 20 299 16 21 68 95 188 35 53 6 45 46 35 77 111 110 98 44 82 13 72 148 10 332 319 340 335 326 330 326 322 323 323 328 340 13 44 75 72 67 65 66 64 63 60 65 65 61 57 58 59 61 61 60 56 60 59 56 57 52 53 54 48 46 45 31 24 33 27 15 19 35 9 13 6 357 18 21 350 355 329 32 40 221
308 311 312 297 253 110 226 122 98 12 46 55 353 77 335 330 36 25 48 68 113 147 147 75 77 88 97 110 125 125 56 54 29 339 263 7 325 302 337 326 325 337 328 325 318 317 336 351 9 30 47 77 73 71 69 68 63 61 60 63 62 62 63 63 63 62 62 56 58 56 52 50 51 51 50 49 46 54 49 42 31 33 19 16 10 7 24 35 15 39 1 357 333 330 209 183 211
313 336 325 11 50 95 51 46 220 106 97 89 6 11 333 59 66 57 76 107 125 138 138 98 77 37 32 73 54 11 106 56 23 3 332 351 356 334 324 313 325 333 328 328 318 322 342 1 12 28 33 43 59 56 61 65 61 60 59 59 63 59 61 61 61 57 53 50 45 43 43 41 42 43 45 45 45 44 45 44 43 36 35 25 15 352 7 46 42 30 27 11 16 320 255 195 183
325 259 227 9 216 21 86 28 83 127 108 181 94 357 41 105 89 77 73 115 139 159 166 20 37 339 41 45 24 82 65 26 47 350 344 349 351 299 305 308 318 318 335 334 330 334 358 14 21 27 37 42 49 51 51 54 56 55 55 54 54 54 53 52 52 51 49 50 47 43 40 38 36 32 37 38 39 38 38 33 33 31 31 32 35 17 12 9 21 42 17 17 31 33 11 179 183
329 299 176 102 110 224 108 105 121 77 133 198 136 103 68 95 104 92 75 65 40 358 74 146 89 14 77 69 1 30 340 303 25 17 323 323 309 282 300 313 306 320 341 341 340 338 6 23 25 31 37 40 45 48 50 55 58 58 59 59 57 55 55 53 52 53 55 54 53 48 44 41 36 33 33 32 29 33 34 31 29 27 27 23 26 26 28 21 4 5 5 353 7 89 129 233 235
315 45 19 88 166 196 54 48 36 73 35 256 68 337 146 126 107 108 95 73 56 37 15 75 125 154 53 46 17 29 319 49 357 4 348 303 304 319 327 318 314 317 340 347 348 344 9 24 32 36 40 43 47 48 49 49 51 55 56 57 56 55 52 52 53 51 51 50 50 51 50 46 42 37 33 33 33 29 28 29 30 28 25 22 21 17 19 24 19 10 1 7 10 5 38 324 338
8 30 353 32 9 53 119 111 104 97 21 16 33 359 101 136 137 128 122 101 47 62 17 95 114 123 86 125 88 97 189 199 51 300 231 280 312 336 336 331 313 354 348 351 359 356 17 26 34 38 40 42 45 46 48 51 50 52 55 57 58 57 56 53 52 51 50 52 51 50 49 47 47 43 39 37 34 33 32 28 27 27 27 24 21 19 19 19 17 19 14 12 345 334 295 260 260
112 111 260 103 91 54 62 106 63 70 7 32 3 49 21 18 54 58 29 73 353 36 34 129 131 88 65 28 114 196 191 239 189 200 236 267 351 347 347 342 2 4 356 354 356 1 13 28 32 35 39 42 43 45 47 49 50 51 52 55 56 57 57 55 54 58 57 54 51 51 49 46 46 43 42 41 39 36 34 33 30 27 25 23 21 20 19 18 19 14 13 19 21 10 335 326 298
5 76 321 78 62 54 69 64 102 40 67 14 29 35 42 41 47 110 65 84 105 47 15 262 252 65 124 82 69 164 224 213 236 229 235 312 21 356 359 353 4 3 5 4 7 357 359 23 33 33 35 39 42 43 45 48 49 49 50 50 51 52 52 53 52 55 57 56 53 51 51 49 47 46 42 39 39 38 37 35 34 32 29 27 24 23 20 17 16 16 14 19 23 26 23 52 273
17 91 206 114 129 89 111 40 61 48 80 45 47 22 25 24 72 71 106 80 89 79 41 47 80 113 137 96 112 57 4 209 211 264 217 214 95 33 11 16 25 13 12 9 9 6 9 17 31 33 33 35 39 41 42 45 47 48 49 48 48 48 49 49 48 48 52 52 52 50 49 47 47 45 41 38 35 35 37 34 32 32 31 30 28 25 22 20 17 17 16 16 17 20 19 19 27
3 7 137 72 56 111 76 96 68 20 21 333 28 8 13 28 68 70 62 86 35 74 164 45 73 112 120 77 68 163 50 16 88 64 64 75 282 346 11 22 33 27 19 13 11 13 17 19 24 29 31 32 36 37 38 40 42 45 46 45 45 46 46 46 48 47 48 48 48 48 46 44 44 44 40 36 34 32 33 32 30 30 30 31 30 27 25 22 20 18 17 15 15 15 19 18 17
47 12 10 94 66 124 74 105 92 100 42 14 30 10 343 22 28 50 12 83 62 61 41 332 132 137 86 115 89 72 42 25 72 81 73 65 47 33 25 22 23 24 18 17 13 16 17 23 24 24 27 28 32 36 35 36 38 40 42 43 42 42 42 41 42 45 47 45 43 43 42 41 42 43 39 35 33 32 31 28 26 26 26 28 28 27 26 25 23 21 19 18 16 14 15 15 17
115 122 75 72 2 73 127 82 133 85 23 3 314 348 319 45 54 80 73 75 21 73 28 348 142 201 92 72 113 54 44 21 82 111 92 46 37 25 30 28 20 23 23 23 26 20 20 21 21 23 26 28 26 29 33 32 35 37 38 40 39 39 37 37 37 38 41 41 41 40 38 37 38 38 37 33 31 31 30 26 23 24 25 24 24 24 23 23 23 22 19 19 18 17 16 14 13
95 131 102 98 13 99 99 139 57 82 22 196 71 30 27 68 14 11 83 63 7 41 49 335 10 85 100 122 106 68 41 21 43 64 64 59 39 23 26 25 20 23 16 15 26 26 27 19 19 17 21 25 26 26 24 29 30 33 35 37 37 37 35 33 33 34 36 37 37 37 36 35 35 35 33 31 28 28 27 25 23 22 24 24 24 22 21 21 21 21 20 19 18 17 15 14 13
102 113 88 102 62 67 217 120 177 136 217 146 219 36 45 18 10 56 49 88 58 27 301 27 350 291 196 167 144 157 22 352 17 62 50 44 37 24 38 24 17 19 20 11 14 17 23 28 22 17 20 24 27 28 27 22 28 29 32 32 33 35 36 34 31 28 26 30 33 36 37 36 35 34 31 30 28 25 24 23 22 21 22 23 24 22 20 19 19 19 18 18 18 17 15 13 11
110 83 77 93 59 113 272 116 133 111 188 132 145 139 73 35 12 46 360 19 107 12 31 353 6 45 1 65 54 53 14 14 10 68 49 36 40 28 26 26 25 22 28 23 23 22 13 26 21 24 22 21 24 31 30 26 27 29 29 31 31 31 31 33 33 30 26 23 24 25 25 31 34 33 33 28 27 25 24 22 20 21 20 23 24 22 19 18 16 17 17 16 15 14 14 13 12
42 82 63 45 100 74 203 92 144 200 158 148 203 345 89 61 49 81 67 53 70 41 59 19 27 35 48 87 123 69 42 59 54 53 41 34 46 29 29 26 15 17 23 24 29 26 27 29 25 23 20 14 18 15 27 31 31 34 30 29 31 32 33 33 33 28 28 24 20 17 14 14 18 25 30 28 26 24 22 19 18 18 18 20 22 22 19 17 14 14 15 15 14 12 10 10 9
49 52 104 62 126 60 269 178 189 119 118 156 33 60 116 117 216 189 69 49 76 75 66 54 59 59 75 88 83 83 72 66 64 68 54 51 24 23 31 15 19 24 10 17 19 22 22 34 38 38 33 28 29 25 25 20 18 24 27 27 28 27 26 31 31 32 30 26 23 18 16 13 9 12 18 24 22 24 20 24 17 15 14 15 18 18 19 17 14 11 11 12 13 11 9 6 3
61 94 57 105 45 334 349 38 63 78 77 83 82 23 63 119 142 145 72 25 19 60 50 62 77 71 75 73 69 70 68 61 64 64 62 50 43 49 41 14 20 15 23 0 355 5 12 6 4 33 37 36 41 37 28 23 23 21 17 16 17 22 20 23 23 17 0 22 25 26 19 13 13 12 12 15 18 18 17 19 18 16 11 9 13 12 12 14 14 10 7 8 8 8 8 5 1
25 93 74 64 130 79 48 64 76 89 117 92 84 50 70 323 67 34 96 104 53 63 100 61 68 100 90 84 74 69 68 64 60 60 52 49 34 30 30 20 11 9 354 345 325 315 331 344 349 343 355 339 20 3 15 20 21 12 7 7 13 15 14 16 16 16 17 11 6 6 0 353 2 9 9 9 12 10 7 8 12 14 7 359 5 1 5 7 6 7 6 5 3 3 3 1 358
347 62 78 132 265 71 359 59 68 73 88 96 81 80 57 15 38 81 151 79 30 22 28 124 132 117 103 91 85 73 74 73 70 59 59 51 46 41 7 359 352 323 310 307 312 320 319 317 321 327 325 324 358 1 8 2 9 3 0 360 3 357 3 3 8 11 14 14 7 353 349 342 337 345 343 345 1 356 1 7 8 9 1 355 357 359 359 354 355 356 359 1 1 359 357 359 355
99 81 69 102 49 72 24 63 49 86 60 85 63 64 90 5 36 16 13 108 116 316 70 93 107 111 107 104 96 95 89 86 78 72 66 63 59 47 25 350 308 281 284 309 324 329 329 308 303 316 338 350 1 357 357 352 1 1 356 352 359 359 359 1 359 2 7 8 5 2 356 359 1 1 2 3 2 360 358 358 0 2 2 360 2 356 355 349 352 353 353 355 357 352 351 351 352
86 15 40 44 61 106 335 32 22 71 60 51 60 52 69 67 79 20 64 72 97 83 106 110 104 104 106 106 112 108 107 108 106 93 84 71 57 45 28 292 330 346 335 337 342 355 4 12 10 5 5 350 352 352 350 355 354 345 346 350 1 346 358 353 347 351 1 1 359 1 7 0 0 1 1 1 360 1 356 351 352 352 353 356 358 353 349 348 348 348 345 344 343 342 346 345 347
90 90 73 53 73 81 81 78 64 59 77 62 100 77 64 23 70 360 68 44 87 95 98 91 91 94 98 107 115 121 126 125 118 117 137 148 175 193 215 352 309 290 1 341 2 356 6 9 9 25 18 23 6 2 11 5 356 359 356 2 6 355 3 343 332 333 351 352 358 358 7 4 357 357 359 357 356 355 351 346 342 343 342 348 351 351 346 346 346 345 342 338 338 341 344 342 342
79 87 85 121 61 81 86 94 83 83 81 109 71 63 18 84 118 96 72 106 103 111 107 100 102 106 108 118 134 140 129 130 132 171 180 217 209 224 252 285 330 7 15 350 335 7 350 2 21 21 21 18 13 12 19 1 3 2 4 7 3 2 6 351 333 330 341 344 353 1 1 5 357 354 354 354 350 351 349 346 344 343 341 339 346 347 349 342 341 340 341 338 338 338 338 340 339
25 108 84 67 84 74 85 65 81 91 80 80 74 87 111 121 109 67 159 143 144 128 112 116 113 116 130 138 140 131 136 143 157 159 172 193 163 96 29 19 9 18 317 340 356 342 347 5 18 12 13 20 9 23 5 9 356 3 354 355 350 3 355 343 354 346 325 337 344 355 3 9 2 351 347 346 352 346 346 344 344 341 340 334 341 341 342 340 333 334 333 334 335 332 331 331 333
148 108 101 109 132 110 11 117 137 115 104 60 102 138 159 223 43 208 219 172 131 109 113 109 121 137 147 148 146 140 133 151 156 160 92 50 58 98 72 16 40 351 7 10 3 354 347 9 359 2 0 8 20 17 360 358 355 354 344 334 347 352 335 353 352 343 344 335 328 352 358 4 2 356 346 340 344 343 340 342 340 338 337 336 333 331 333 333 329 326 325 327 328 326 323 321 322
110 123 94 70 84 82 104 81 138 67 34 112 123 165 249 293 78 193 161 193 140 127 127 136 132 146 160 160 151 177 131 149 117 111 138 116 178 131 69 114 64 10 28 7 354 357 17 3 355 357 357 353 10 2 357 352 344 336 334 346 338 331 341 344 334 337 336 326 323 341 346 352 354 354 349 338 338 341 334 332 328 332 326 325 331 327 329 329 326 321 317 312 313 313 314 316 315
150 121 89 59 18 54 8 53 331 107 177 159 139 82 13 355 39 175 164 159 154 146 165 175 163 169 163 161 157 144 166 143 121 130 196 214 214 191 146 223 171 62 307 302 340 32 10 353 356 337 344 350 344 332 337 329 339 334 335 332 329 336 337 335 329 322 314 311 315 314 320 328 342 344 335 326 328 330 327 325 326 323 318 321 325 325 327 327 327 326 325 326 324 326 324 321 317
107 23 125 66 6 28 344 325 347 86 201 165 196 17 280 280 274 179 171 154 146 143 168 180 165 155 154 137 135 123 118 120 139 174 182 182 179 165 150 228 222 136 99 338 19 9 333 335 335 329 341 341 332 317 327 335 332 329 328 326 329 341 337 336 323 322 314 307 307 291 286 291 292 300 293 306 308 314 313 310 308 311 310 316 319 325 327 327 324 325 322 326 325 327 324 321 323
112 216 59 56 62 322 318 27 320 96 187 119 89 113 288 271 227 212 191 158 153 168 181 182 166 161 145 139 126 141 185 166 164 181 176 157 145 151 136 299 344 358 9 5 354 296 316 305 308 327 322 326 327 325 311 309 316 325 322 319 326 335 330 330 313 320 321 309 309 299 279 267 271 272 272 266 287 294 301 304 300 292 302 308 315 312 316 315 318 317 320 322 317 317 313 314 315
24 48 337 335 83 288 302 336 37 65 329 64 83 103 232 236 208 211 191 160 155 169 184 180 173 163 159 150 131 137 172 201 173 173 162 141 127 109 96 69 26 36 333 287 281 307 302 298 298 309 309 310 311 299 295 286 289 292 295 302 316 324 327 326 319 313 310 304 301 301 287 275 270 269 271 267 278 282 283 285 283 286 291 303 304 305 312 310 308 307 308 312 316 314 317 313 314
3 84 183 12 35 337 8 75 42 348 261 349 52 246 319 321 217 208 194 155 162 165 182 180 177 174 166 165 163 159 150 221 117 167 180 143 125 134 146 172 188 194 215 247 264 294 295 292 296 291 285 286 291 296 299 291 291 302 295 286 281 299 312 308 307 313 317 317 316 311 305 293 280 275 270 265 265 275 274 272 276 278 280 287 295 296 296 291 301 303 301 299 294 304 310 309 311
345 18 43 340 35 342 7 308 18 4 50 314 357 195 243 242 245 207 205 161 157 166 181 185 186 181 183 176 168 172 174 181 195 204 208 200 187 201 211 197 231 274 273 298 276 260 266 275 277 276 273 274 272 279 281 282 279 282 286 289 290 294 290 281 283 301 303 305 311 306 308 304 295 291 287 280 272 269 263 264 272 273 272 275 278 287 285 287 286 286 294 293 295 295 301 304 305
310 345 10 342 339 38 28 18 322 13 353 337 339 198 288 291 267 204 205 161 149 174 173 188 189 191 193 184 184 190 188 189 215 212 209 203 189 200 198 202 221 247 259 260 274 279 277 279 279 280 276 273 276 276 280 282 285 288 287 293 302 294 287 280 273 285 277 290 290 288 294 295 295 294 292 291 288 284 280 272 270 270 269 267 274 280 287 286 283 280 279 290 287 273 276 291 295
217 208 220 56 18 325 11 292 345 31 336 337 22 338 322 322 305 229 219 174 145 157 145 174 216 208 201 198 199 203 203 215 221 215 210 199 189 194 209 218 230 239 257 267 267 271 273 276 274 278 270 263 268 278 279 283 287 285 287 303 304 285 280 284 282 262 276 278 274 279 282 286 285 287 288 288 285 283 282 279 276 274 272 268 273 282 284 284 282 286 283 282 289 292 279 271 281
209 109 91 61 4 308 277 314 23 5 2 315 320 330 323 322 317 222 187 120 118 127 150 197 204 209 209 211 211 212 212 215 225 214 206 199 199 205 216 220 234 252 262 264 268 269 264 260 269 271 267 267 273 275 277 266 270 281 286 267 265 273 278 282 282 281 273 267 273 275 276 275 278 281 282 285 284 281 278 279 280 281 273 270 267 271 274 279 272 263 272 276 285 288 290 282 277
162 132 94 55 37 326 307 278 19 28 49 291 5 352 359 351 349 344 107 114 187 178 206 221 223 220 216 209 219 219 226 297 172 194 240 237 232 231 227 224 228 241 258 255 257 257 262 269 259 263 276 278 272 263 264 268 249 235 246 262 265 272 281 278 281 285 275 276 277 278 279 280 278 276 277 279 278 275 277 275 273 277 281 277 272 273 279 278 283 281 278 287 252 268 281 280 285
34 78 135 91 353 273 293 325 334 13 41 247 356 21 9 3 13 33 85 116 280 215 196 221 202 231 241 245 238 228 219 221 200 207 213 224 229 236 231 240 247 236 253 257 262 277 276 273 270 271 278 280 278 279 275 264 259 255 237 252 242 265 255 258 263 274 287 287 286 284 279 279 277 278 278 280 281 277 268 269 273 275 275 274 283 284 283 283 279 281 280 278 292 264 269 258 257
43 25 44 29 290 33 318 305 353 334 75 259 2 36 29 19 32 47 39 34 353 8 17 352 318 290 270 249 228 204 205 187 193 196 207 227 235 253 276 273 252 256 266 274 272 270 276 277 277 281 281 282 284 285 285 273 271 275 272 267 280 261 273 293 289 284 283 283 281 279 278 271 270 271 277 279 279 275 273 274 278 278 275 270 269 279 282 283 282 280 278 274 271 290 280 279 217
355 90 104 53 353 7 209 290 332 303 339 176 40 57 32 9 22 27 13 34 47 14 19 2 346 312 270 259 277 243 195 183 191 221 250 260 266 253 243 249 271 270 266 268 273 275 274 276 277 278 282 285 287 286 285 285 294 297 289 298 290 297 289 283 296 290 278 275 279 282 277 278 276 275 276 276 275 275 276 276 278 279 279 277 276 276 277 273 276 275 277 278 274 274 286 280 272
339 257 134 142 153 296 288 294 333 21 337 352 56 49 26 343 11 22 348 19 27 345 23 358 338 343 345 336 287 265 269 281 186 201 221 238 251 268 270 264 271 277 278 266 260 265 264 267 271 282 291 292 291 293 294 301 295 290 302 304 304 300 297 301 296 297 301 299 293 292 291 285 283 281 278 277 274 274 275 273 272 274 273 273 272 270 274 279 276 273 270 271 274 267 268 281 280
58 330 154 130 155 271 285 314 22 19 74 333 52 120 170 333 16 347 335 11 16 1 23 359 358 354 354 337 332 4 122 163 317 280 268 276 263 273 285 284 266 264 261 255 262 256 255 256 271 280 279 281 284 286 296 304 304 295 283 277 278 282 287 285 279 283 284 284 285 288 285 287 282 281 279 275 274 273 273 274 272 270 269 269 269 269 270 268 267 266 269 266 266 271 272 276 276
322 258 124 14 318 297 271 89 12 175 273 298 35 65 130 7 336 325 326 14 20 13 2 359 358 360 1 3 16 33 11 10 227 268 287 274 280 235 258 272 265 243 264 286 278 284 301 308 307 301 296 289 285 288 298 294 288 287 286 283 275 274 267 275 282 282 281 283 286 284 285 282 278 275 275 273 271 271 270 271 269 268 269 267 267 265 266 265 266 263 258 259 264 264 265 266 275
267 195 7 308 277 248 189 138 149 218 82 356 349 14 62 251 273 317 334 44 1 5 342 343 346 350 1 11 22 23 15 355 327 343 339 328 313 305 281 290 288 293 289 290 302 308 305 300 300 301 297 293 292 297 298 297 289 282 280 283 291 282 283 284 286 286 287 287 286 287 284 282 280 275 269 269 267 265 265 266 266 266 266 266 264 265 264 262 261 264 266 264 261 261 254 259 264
283 297 304 32 87 98 133 97 81 358 71 14 6 347 103 285 259 330 338 82 2 320 320 318 320 323 337 353 357 7 5 359 339 327 289 293 291 296 298 305 312 307 307 311 307 304 303 306 303 303 295 294 291 296 295 295 293 293 291 286 282 286 286 286 282 285 287 285 286 287 286 285 284 282 279 274 273 267 266 266 265 265 265 264 265 262 263 263 262 261 260 261 262 265 264 261 262
287 360 55 1 42 56 37 71 91 51 41 271 172 346 122 275 275 247 258 346 228 295 314 310 320 332 331 315 312 321 326 322 322 323 320 319 306 294 309 315 307 312 314 316 313 312 310 308 303 303 293 295 293 291 293 288 288 287 284 282 283 286 287 288 292 288 287 289 288 288 286 284 282 280 278 275 269 271 271 270 271 270 269 269 270 269 265 265 266 267 268 267 266 266 267 266 265
351 4 3 63 343 13 32 344 33 79 304 264 224 353 169 143 276 262 242 280 225 204 284 299 315 310 306 305 306 300 322 326 326 338 331 324 329 327 328 322 318 310 313 312 307 306 303 300 299 297 295 292 292 289 293 289 292 292 287 286 287 286 289 293 293 295 298 297 297 296 294 293 290 288 287 286 284 279 276 278 276 278 278 278 276 274 275 275 275 276 275 275 274 270 268 269 269
13 356 10 71 292 38 282 11 10 7 174 208 118 1 28 308 212 213 269 267 282 223 212 230 261 287 295 301 298 295 316 330 332 312 308 314 310 311 316 312 316 316 311 307 305 303 300 300 297 300 294 293 291 294 294 295 297 292 290 292 293 295 299 299 299 301 302 304 306 306 309 307 307 304 304 301 300 300 301 297 297 292 290 285 283 281 281 280 282 282 281 280 277 274 273 270 270
3 21 12 66 44 36 253 273 217 318 291 262 42 308 154 227 290 209 194 226 218 227 229 229 232 255 278 287 300 314 314 307 299 295 293 294 298 298 301 302 303 304 305 305 306 306 304 302 301 298 292 295 297 301 300 302 297 295 299 302 303 305 303 302 302 303 308 310 312 311 312 311 309 308 309 307 310 312 309 309 308 306 303 302 301 298 296 295 292 289 288 286 285 283 280 276 272
289 240 42 143 128 102 343 295 3 251 240 291 305 59 234 68 265 173 201 216 284 252 257 259 264 268 282 283 286 296 306 306 302 299 295 296 299 298 298 299 299 298 299 301 302 299 302 302 303 304 304 305 310 308 307 305 307 314 316 312 309 308 305 308 310 313 315 314 312 309 308 309 309 310 310 310 312 310 308 306 304 303 301 297 295 292 288 287 285 283 283 282 281 281 279 277 274
266 146 101 46 16 143 109 211 197 271 329 332 341 217 160 152 277 323 242 313 299 342 299 333 310 315 325 325 318 302 295 294 300 300 300 299 295 298 300 302 303 305 304 305 302 300 302 298 300 299 297 300 304 307 311 316 315 315 311 311 309 310 312 313 313 312 311 310 311 312 311 311 311 311 310 310 309 308 306 306 304 300 298 294 291 289 287 286 285 283 281 278 277 276 277 276 276
307 53 19 234 194 102 31 2 25 45 53 262 206 324 314 296 328 49 6 354 277 338 318 337 313 307 316 314 304 298 291 291 292 292 290 290 298 299 292 290 292 296 298 295 294 294 294 299 304 307 309 312 315 322 323 320 315 317 314 312 315 319 319 317 315 314 314 314 314 315 314 313 313 311 311 310 307 306 304 303 301 300 298 295 291 290 288 286 285 283 281 280 279 279 276 277 278
31 41 291 99 88 125 118 258 331 59 133 260 16 306 308 9 313 286 240 286 286 310 299 286 294 292 301 301 291 289 288 284 283 281 278 277 278 282 288 289 287 290 290 293 292 295 298 298 300 305 314 322 324 325 321 318 317 317 316 319 320 318 317 316 317 317 319 319 317 316 314 313 312 311 309 308 307 304 302 300 298 296 296 294 293 291 290 288 286 282 280 276 275 275 274 273 273
91 121 232 75 335 358 325 92 6 342 330 290 310 299 250 196 244 173 251 230 277 291 293 301 315 331 320 311 301 295 294 299 298 298 298 299 295 294 292 290 291 292 293 294 299 307 311 311 317 327 324 321 316 316 315 315 318 319 321 320 320 321 322 321 318 318 319 317 315 314 313 310 309 309 309 307 305 303 303 300 298 297 296 295 293 291 288 286 282 280 277 277 273 270 268 268 267
29 12 21 360 103 151 356 154 182 128 270 22 296 20 263 220 222 191 229 211 226 272 296 315 319 296 297 291 287 286 290 291 292 294 293 289 289 286 287 290 294 298 306 307 307 309 313 320 331 329 328 329 329 328 326 327 326 323 321 321 323 324 322 320 319 320 316 314 312 312 310 309 307 308 305 303 302 301 302 301 301 300 300 298 297 294 293 291 288 281 281 280 277 273 272 271 270
331 24 0 353 1 212 123 24 110 183 200 188 253 330 278 264 215 173 215 209 224 228 253 292 295 291 282 282 283 288 289 287 287 287 288 289 288 291 293 298 300 302 301 302 305 312 315 326 333 335 333 326 327 325 328 326 325 323 325 327 326 326 322 321 318 317 314 312 313 312 311 308 308 306 306 304 305 307 307 309 309 308 309 310 309 308 307 304 301 298 294 291 290 286 283 279 278
189 131 116 167 66 28 51 290 11 55 68 261 85 271 274 273 182 203 199 221 220 228 272 299 297 295 294 296 298 293 294 291 285 284 282 284 286 290 302 306 305 309 310 315 313 324 331 336 331 330 330 324 324 326 327 324 324 326 328 326 324 321 319 317 316 315 314 314 315 315 313 311 308 309 316 318 317 314 312 311 309 308 308 306 305 304 303 301 296 296 294 292 291 289 284 281 278